OneWeb SL0258

operational
NORAD ID: 48976 Int'l Des: 2021-060 Owner: ONEWEBN Country: UK Constellation: oneweb
LEOCIRCULARPOLARONEWEB_TYPE

关于 OneWeb SL0258

正在加载描述...

实时位置

正在加载3D地球...

即将过境

高度历史

Altitude vs Time

uPlot chart will show altitude changes over time

两行轨道根数

1 48976U 21060K 25351.77559531 -.00000014 00000-0 -69161-4 0 9995
2 48976 87.9044 264.9077 0001598 73.4670 286.6637 13.16596203215724
Epoch: Dec 17, 2025 • Age: 15 hours

当前状态

高度 1210.3 km
速度 7.26 km/s
星下点 84.56°N, 55.48°E
发射日期 Jul 1, 2021
运行时间 4.4 years
类型 internet

技术详情

分类 Payload
质量 148.00 kg
干质量 140.00 kg
总质量 148.00 kg
长度 1.30 m
直径 1.00 m
跨度 5.00 m
形状 Trapezoid+2 pan
制造商 ONEWUS
平台类型 ARROW
阶段状态 In Orbit
所有者/国家 ONEWEBN/UK

大型星座

Loading constellations...